Date String (YYYY-MM-DD hh:mm:ss) UTC,Instrument flags,absolute air pressure of the measurement (hPa),sample flow rate (lpm),inlet stack bypass flow (lpm),air temperature of the measurement (°C),ambient temperature measured by the external sensor (°C),aerosol sample conditioner tube jacket temperature (°C),OPC LED temperature (°C),internal box temperature (°C),relative humidity of the measurement (%),span deviation,mass concentration of particles derived from Lorenz-Mie calculation of OPC scattering (μg/m³),mass concentration of particles derived from Lorenz-Mie calculation of OPC scattering (μg/m³),mass concentration of particles derived from Lorenz-Mie calculation of OPC scattering (μg/m³)
DateTimeUTC,F1_M11,P_M11,Q1_M11,Q2_M11,T1_M11,T2_M11,T3_M11,T4_M11,T5_M11,U1_M11,ZSPAN_M11,X2_M11,X0_M11,X1_M11
2024-06-13 20:00:00,SystemResetWarning,0830.6,5.00,000.00,028.5,027.9,000.0,036.7,030.3,024.9,0000.0,0006.78,0022.38,0005.29
2024-06-13 20:01:00,SystemResetWarning,0830.5,4.99,000.00,028.6,028.2,000.0,036.7,030.4,024.1,0000.0,0006.92,0024.13,0005.35
2024-06-13 20:02:00,SystemResetWarning,0830.5,5.00,000.00,028.7,028.4,000.0,036.7,030.6,023.1,0000.0,0007.02,0026.49,0005.38
2024-06-13 20:03:00,SystemResetWarning,0830.5,4.99,000.00,028.6,027.0,000.0,036.8,029.9,023.5,0000.0,0007.08,0026.67,0005.40
2024-06-13 20:04:00,SystemResetWarning,0830.4,5.02,000.00,028.3,025.4,000.0,036.8,029.2,023.8,0000.0,0007.17,0026.32,0005.43
2024-06-13 20:05:00,SystemResetWarning,0830.6,5.01,000.00,028.2,025.8,000.0,036.8,029.3,023.7,0000.0,0007.22,0027.86,0005.46
2024-06-13 20:06:00,SystemResetWarning,0830.6,4.98,000.00,028.2,026.3,000.0,036.7,029.6,023.8,0000.0,0007.22,0027.55,0005.46
2024-06-13 20:07:00,SystemResetWarning,0830.6,5.02,000.00,028.2,026.8,000.0,036.7,029.8,023.8,0000.0,0007.31,0028.60,0005.47
2024-06-13 20:08:00,SystemResetWarning,0830.4,5.00,000.00,028.3,027.2,000.0,036.7,030.0,024.7,0000.0,0007.36,0028.83,0005.48
2024-06-13 20:09:00,SystemResetWarning,0830.5,4.99,000.00,028.4,027.6,000.0,036.7,030.2,025.0,0000.0,0007.32,0029.56,0005.46
2024-06-13 20:10:00,SystemResetWarning,0830.5,5.00,000.00,028.5,027.9,000.0,036.7,030.3,024.6,0000.0,0007.28,0030.06,0005.43
2024-06-13 20:11:00,SystemResetWarning,0830.4,5.01,000.00,028.6,028.2,000.0,036.7,030.5,024.0,0000.0,0007.27,0032.05,0005.40
2024-06-13 20:12:00,SystemResetWarning,0830.4,5.01,000.00,028.7,028.0,000.0,036.8,030.4,023.3,0000.0,0007.22,0032.72,0005.38
2024-06-13 20:13:00,SystemResetWarning,0830.3,4.98,000.00,028.5,026.1,000.0,036.8,029.4,023.6,0000.0,0007.19,0030.29,0005.37
2024-06-13 20:14:00,SystemResetWarning,0830.3,5.02,000.00,028.2,025.4,000.0,036.8,029.1,023.4,0000.0,0007.20,0028.44,0005.37
2024-06-13 20:15:00,SystemResetWarning,0830.4,5.00,000.00,028.1,026.0,000.0,036.8,029.4,023.4,0000.0,0007.16,0028.58,0005.37
2024-06-13 20:16:00,SystemResetWarning,0830.4,4.99,000.00,028.2,026.5,000.0,036.7,029.6,023.5,0000.0,0007.18,0027.90,0005.38
2024-06-13 20:17:00,SystemResetWarning,0830.4,5.01,000.00,028.2,026.9,000.0,036.6,029.8,023.9,0000.0,0007.18,0027.78,0005.37
2024-06-13 20:18:00,SystemResetWarning,0830.5,5.01,000.00,028.3,027.3,000.0,036.6,030.1,023.2,0000.0,0007.12,0027.05,0005.35
2024-06-13 20:19:00,SystemResetWarning,0830.4,5.00,000.00,028.4,027.7,000.0,036.6,030.2,022.9,0000.0,0007.07,0027.19,0005.33
2024-06-13 20:20:00,SystemResetWarning,0830.4,5.00,000.00,028.5,028.0,000.0,036.7,030.4,022.4,0000.0,0007.05,0025.88,0005.33
2024-06-13 20:21:00,SystemResetWarning,0830.4,5.00,000.00,028.6,027.9,000.0,036.7,030.3,022.3,0000.0,0007.02,0025.00,0005.34
2024-06-13 20:22:00,SystemResetWarning,0830.4,4.99,000.00,028.4,026.2,000.0,036.8,029.5,022.3,0000.0,0007.05,0023.00,0005.34
2024-06-13 20:23:00,SystemResetWarning,0830.4,5.02,000.00,028.1,025.3,000.0,036.8,029.1,022.9,0000.0,0007.09,0021.51,0005.36
2024-06-13 20:24:00,SystemResetWarning,0830.4,5.00,000.00,028.1,025.9,000.0,036.7,029.3,022.1,0000.0,0007.10,0022.18,0005.36
2024-06-13 20:25:00,SystemResetWarning,0830.4,5.00,000.00,028.1,026.4,000.0,036.6,029.6,022.4,0000.0,0007.07,0022.85,0005.36
2024-06-13 20:26:00,SystemResetWarning,0830.4,5.00,000.00,028.2,026.8,000.0,036.6,029.8,022.1,0000.0,0007.01,0022.03,0005.34
2024-06-13 20:27:00,SystemResetWarning,0830.4,5.00,000.00,028.3,027.2,000.0,036.6,030.0,021.9,0000.0,0006.97,0021.47,0005.33
2024-06-13 20:28:00,SystemResetWarning,0830.4,5.00,000.00,028.4,027.6,000.0,036.6,030.2,021.0,0000.0,0006.99,0024.51,0005.33
2024-06-13 20:29:00,SystemResetWarning,0830.4,5.00,000.00,028.5,027.9,000.0,036.6,030.3,021.2,0000.0,0007.02,0028.50,0005.33
2024-06-13 20:30:00,SystemResetWarning,0830.4,5.00,000.00,028.6,028.2,000.0,036.6,030.5,021.5,0000.0,0006.99,0029.04,0005.34
2024-06-13 20:31:00,SystemResetWarning,0830.4,4.98,000.00,028.6,027.4,000.0,036.7,030.1,021.6,0000.0,0006.96,0029.34,0005.33
2024-06-13 20:32:00,SystemResetWarning,0830.2,5.01,000.00,028.3,025.5,000.0,036.7,029.2,023.0,0000.0,0006.93,0030.92,0005.32
2024-06-13 20:33:00,SystemResetWarning,0830.2,5.02,000.00,028.1,025.5,000.0,036.7,029.1,023.6,0000.0,0006.95,0032.89,0005.32
2024-06-13 20:34:00,SystemResetWarning,0830.3,4.99,000.00,028.1,026.1,000.0,036.7,029.4,022.7,0000.0,0006.90,0034.21,0005.32
2024-06-13 20:35:00,SystemResetWarning,0830.3,5.00,000.00,028.1,026.6,000.0,036.6,029.7,022.5,0000.0,0006.93,0033.14,0005.32
2024-06-13 20:36:00,SystemResetWarning,0830.3,5.00,000.00,028.2,027.0,000.0,036.6,029.9,021.8,0000.0,0006.96,0033.71,0005.32
2024-06-13 20:37:00,SystemResetWarning,0830.4,5.01,000.00,028.3,027.4,000.0,036.6,030.1,021.7,0000.0,0006.99,0034.73,0005.33
2024-06-13 20:38:00,SystemResetWarning,0830.4,4.99,000.00,028.4,027.8,000.0,036.6,030.2,021.2,0000.0,0007.01,0035.38,0005.34
2024-06-13 20:39:00,SystemResetWarning,0830.4,5.00,000.00,028.5,028.0,000.0,036.6,030.4,021.3,0000.0,0006.95,0032.52,0005.35
2024-06-13 20:40:00,SystemResetWarning,0830.3,5.00,000.00,028.6,028.2,000.0,036.6,030.5,021.3,0000.0,0006.92,0030.46,0005.36
2024-06-13 20:41:00,SystemResetWarning,0830.3,4.99,000.00,028.5,026.7,000.0,036.7,029.8,021.6,0000.0,0006.91,0031.82,0005.35
2024-06-13 20:42:00,SystemResetWarning,0830.2,5.02,000.00,028.2,025.3,000.0,036.7,029.1,022.7,0000.0,0006.96,0030.92,0005.36
2024-06-13 20:43:00,SystemResetWarning,0830.3,5.00,000.00,028.1,025.9,000.0,036.7,029.3,022.8,0000.0,0006.99,0030.34,0005.36
2024-06-13 20:44:00,SystemResetWarning,0830.3,4.99,000.00,028.1,026.3,000.0,036.6,029.6,022.4,0000.0,0007.00,0029.21,0005.37
2024-06-13 20:45:00,SystemResetWarning,0830.3,5.00,000.00,028.2,026.8,000.0,036.6,029.8,021.2,0000.0,0007.03,0028.19,0005.38
2024-06-13 20:46:00,SystemResetWarning,0830.3,5.01,000.00,028.3,027.2,000.0,036.6,030.0,020.9,0000.0,0006.98,0029.12,0005.38
2024-06-13 20:47:00,SystemResetWarning,0830.3,4.99,000.00,028.4,027.6,000.0,036.6,030.2,021.4,0000.0,0006.95,0028.94,0005.36
2024-06-13 20:48:00,SystemResetWarning,0830.3,5.00,000.00,028.5,027.9,000.0,036.6,030.3,020.6,0000.0,0006.92,0029.16,0005.34
2024-06-13 20:49:00,SystemResetWarning,0830.3,5.00,000.00,028.6,028.2,000.0,036.6,030.5,020.5,0000.0,0006.85,0028.33,0005.31
2024-06-13 20:50:00,SystemResetWarning,0830.3,4.99,000.00,028.6,027.8,000.0,036.7,030.3,022.2,0000.0,0006.82,0029.50,0005.30
2024-06-13 20:51:00,SystemResetWarning,0830.3,5.00,000.00,028.4,025.9,000.0,036.7,029.3,022.3,0000.0,0006.77,0027.34,0005.28
2024-06-13 20:52:00,SystemResetWarning,0830.3,5.00,000.00,028.1,025.4,000.0,036.7,029.1,021.5,0000.0,0006.82,0024.19,0005.28
2024-06-13 20:53:00,SystemResetWarning,0830.4,5.02,000.00,028.1,026.1,000.0,036.7,029.4,020.7,0000.0,0006.81,0025.35,0005.27
2024-06-13 20:54:00,SystemResetWarning,0830.4,4.99,000.00,028.1,026.5,000.0,036.6,029.6,021.0,0000.0,0006.78,0024.73,0005.27
2024-06-13 20:55:00,SystemResetWarning,0830.3,4.99,000.00,028.2,026.9,000.0,036.6,029.9,022.2,0000.0,0006.76,0025.50,0005.25
2024-06-13 20:56:00,SystemResetWarning,0830.2,5.00,000.00,028.3,027.3,000.0,036.6,030.1,022.9,0000.0,0006.66,0026.52,0005.23
2024-06-13 20:57:00,SystemResetWarning,0830.2,4.99,000.00,028.4,027.7,000.0,036.6,030.2,024.0,0000.0,0006.63,0025.88,0005.22
2024-06-13 20:58:00,SystemResetWarning,0830.3,5.01,000.00,028.5,028.0,000.0,036.6,030.4,024.5,0000.0,0006.61,0025.50,0005.22
2024-06-13 20:59:00,SystemResetWarning,0830.3,5.00,000.00,028.6,028.2,000.0,036.7,030.5,024.4,0000.0,0006.62,0024.98,0005.22
